When you browse on this site, cookies collect data to enhance your experience and personalize the content and advertising you see.
Visit our Privacy Policy to learn more. By continuing to use the site, you agree to this use of cookies and data.
  • In Norway
  • List of Countries
  • For 7 days
  • Water Temperature
  • Satellite Maps
  • Weather Map
  • Weather Widgets
  • user-avatar
    Login

    Hourly Weather Quito

    Today, 17 November, Saturday

    Time Temperature Precipitation Wind Pressure Humidity
    00:00 +18°C° 0 mm 2 mps 622 mmHg 72%
    01:00 +17°C° 0 mm 2 mps 622 mmHg 77%
    02:00 +17°C° 0 mm 2 mps 622 mmHg 81%
    03:00 +16°C° 0 mm 1 mps 622 mmHg 85%
    04:00 +16°C° 0 mm 1 mps 622 mmHg 89%
    05:00 +18°C° 0 mm 1 mps 623 mmHg 84%
    06:00 +20°C° 0 mm 1 mps 623 mmHg 80%
    07:00 +21°C° 0 mm 1 mps 624 mmHg 75%
    08:00 +24°C° 0 mm 1 mps 625 mmHg 63%
    09:00 +27°C° 0 mm 1 mps 626 mmHg 52%
    10:00 +30°C° 0 mm 1 mps 626 mmHg 40%
    11:00 +30°C° 0 mm 2 mps 626 mmHg 36%
    12:00 +30°C° 0 mm 2 mps 625 mmHg 33%
    13:00 +31°C° 0 mm 2 mps 625 mmHg 29%
    14:00 +30°C° 0 mm 2 mps 624 mmHg 32%
    15:00 +29°C° 0 mm 2 mps 624 mmHg 35%
    16:00 +28°C° 0 mm 1 mps 623 mmHg 38%
    17:00 +26°C° 0.5 mm 1 mps 623 mmHg 46%
    18:00 +24°C° 0.5 mm 2 mps 623 mmHg 54%
    19:00 +21°C° 0.5 mm 2 mps 622 mmHg 61%
    20:00 +21°C° 0.4 mm 1 mps 623 mmHg 69%
    21:00 +20°C° 0.4 mm 1 mps 623 mmHg 76%
    22:00 +19°C° 0.4 mm 1 mps 623 mmHg 83%
    23:00 +19°C° 0 mm 1 mps 623 mmHg 84%

    Tomorrow, 18 November, Sunday

    Time Temperature Precipitation Wind Pressure Humidity
    00:00 +19°C° 0 mm 1 mps 623 mmHg 86%
    01:00 +17°C° 0 mm 2 mps 622 mmHg 88%
    02:00 +18°C° 0 mm 1 mps 622 mmHg 89%
    03:00 +18°C° 0 mm 1 mps 622 mmHg 90%
    04:00 +16°C° 0 mm 1 mps 622 mmHg 91%
    05:00 +19°C° 0.1 mm 1 mps 622 mmHg 87%
    06:00 +20°C° 0.1 mm 1 mps 623 mmHg 83%
    07:00 +21°C° 0.1 mm 1 mps 624 mmHg 79%
    08:00 +24°C° 0.3 mm 1 mps 625 mmHg 67%
    09:00 +27°C° 0.3 mm 1 mps 626 mmHg 54%
    10:00 +30°C° 0.3 mm 1 mps 626 mmHg 42%
    11:00 +30°C° 0 mm 1 mps 626 mmHg 39%
    12:00 +30°C° 0 mm 1 mps 625 mmHg 36%
    13:00 +30°C° 0 mm 1 mps 624 mmHg 34%
    14:00 +29°C° 0.4 mm 1 mps 623 mmHg 41%
    15:00 +27°C° 0.4 mm 1 mps 622 mmHg 49%
    16:00 +25°C° 0.4 mm 2 mps 621 mmHg 56%
    17:00 +23°C° 1.1 mm 2 mps 621 mmHg 64%
    18:00 +22°C° 1.1 mm 1 mps 621 mmHg 71%
    19:00 +20°C° 1.1 mm 1 mps 621 mmHg 79%
    20:00 +20°C° 0.3 mm 1 mps 622 mmHg 79%
    21:00 +20°C° 0.3 mm 1 mps 623 mmHg 79%
    22:00 +20°C° 0.3 mm 1 mps 623 mmHg 79%
    23:00 +19°C° 0.3 mm 1 mps 623 mmHg 82%

    Day after tomorrow, 19 November, Monday

    Time Temperature Precipitation Wind Pressure Humidity
    00:00 +19°C° 0.3 mm 1 mps 622 mmHg 85%
    01:00 +18°C° 0.3 mm 1 mps 622 mmHg 87%
    02:00 +18°C° 0.9 mm 1 mps 622 mmHg 89%
    03:00 +16°C° 0.9 mm 1 mps 621 mmHg 90%
    04:00 +16°C° 0.9 mm 1 mps 621 mmHg 91%
    05:00 +18°C° 0 mm 1 mps 622 mmHg 88%
    06:00 +19°C° 0 mm 1 mps 622 mmHg 85%
    07:00 +20°C° 0 mm 1 mps 623 mmHg 81%
    08:00 +24°C° 0.2 mm 1 mps 624 mmHg 69%
    09:00 +25°C° 0.2 mm 0 mps 625 mmHg 56%
    10:00 +29°C° 0.2 mm 0 mps 626 mmHg 44%
    11:00 +31°C° 0 mm 1 mps 625 mmHg 41%
    12:00 +30°C° 0 mm 2 mps 624 mmHg 39%
    13:00 +30°C° 0 mm 2 mps 623 mmHg 37%
    14:00 +29°C° 0 mm 2 mps 623 mmHg 39%
    15:00 +29°C° 0 mm 2 mps 622 mmHg 42%
    16:00 +28°C° 0 mm 2 mps 622 mmHg 44%
    17:00 +26°C° 0.1 mm 2 mps 622 mmHg 51%
    18:00 +24°C° 0.1 mm 2 mps 622 mmHg 58%
    19:00 +22°C° 0.1 mm 1 mps 622 mmHg 64%
    20:00 +21°C° 1.1 mm 1 mps 622 mmHg 73%
    21:00 +20°C° 1.1 mm 1 mps 622 mmHg 81%
    22:00 +19°C° 1.1 mm 1 mps 623 mmHg 90%
    23:00 +19°C° 0.5 mm 1 mps 622 mmHg 91%

    20 November, Tuesday

    Time Temperature Precipitation Wind Pressure Humidity
    00:00 +19°C° 0.5 mm 1 mps 622 mmHg 91%
    01:00 +18°C° 0.5 mm 1 mps 622 mmHg 92%
    02:00 +18°C° 0.1 mm 1 mps 621 mmHg 92%
    03:00 +18°C° 0.1 mm 1 mps 621 mmHg 92%
    04:00 +18°C° 0.1 mm 1 mps 621 mmHg 93%
    05:00 +19°C° 0 mm 1 mps 622 mmHg 88%
    06:00 +20°C° 0 mm 1 mps 623 mmHg 84%
    07:00 +19°C° 0 mm 0 mps 623 mmHg 80%
    08:00 +22°C° 0.6 mm 0 mps 624 mmHg 70%
    09:00 +25°C° 0.6 mm 0 mps 625 mmHg 59%
    10:00 +27°C° 0.6 mm 0 mps 626 mmHg 48%
    11:00 +29°C° 0 mm 1 mps 625 mmHg 47%
    12:00 +29°C° 0 mm 1 mps 624 mmHg 45%
    13:00 +29°C° 0 mm 2 mps 623 mmHg 43%
    14:00 +28°C° 0 mm 2 mps 623 mmHg 45%
    15:00 +28°C° 0 mm 2 mps 623 mmHg 47%
    16:00 +28°C° 0 mm 1 mps 623 mmHg 49%
    17:00 +26°C° 0 mm 1 mps 623 mmHg 55%
    18:00 +24°C° 0 mm 1 mps 623 mmHg 60%
    19:00 +23°C° 0 mm 1 mps 623 mmHg 65%
    20:00 +22°C° 0.1 mm 1 mps 623 mmHg 69%
    21:00 +20°C° 0.1 mm 2 mps 623 mmHg 73%
    22:00 +19°C° 0.1 mm 2 mps 623 mmHg 77%
    23:00 +19°C° 0.6 mm 2 mps 622 mmHg 83%

    21 November, Wednesday

    Time Temperature Precipitation Wind Pressure Humidity
    00:00 +18°C° 0.6 mm 2 mps 622 mmHg 88%
    01:00 +18°C° 0.6 mm 1 mps 622 mmHg 93%
    02:00 +18°C° 0.1 mm 1 mps 622 mmHg 93%
    03:00 +18°C° 0.1 mm 1 mps 621 mmHg 94%
    04:00 +18°C° 0.1 mm 1 mps 621 mmHg 94%
    05:00 +19°C° 0 mm 1 mps 622 mmHg 91%
    06:00 +19°C° 0 mm 1 mps 623 mmHg 87%
    07:00 +20°C° 0 mm 1 mps 624 mmHg 84%
    08:00 +23°C° 0.1 mm 1 mps 624 mmHg 73%
    09:00 +25°C° 0.1 mm 1 mps 625 mmHg 61%
    10:00 +28°C° 0.1 mm 1 mps 625 mmHg 50%
    11:00 +30°C° 0 mm 1 mps 625 mmHg 45%
    12:00 +32°C° 0 mm 1 mps 625 mmHg 40%
    13:00 +32°C° 0 mm 0 mps 625 mmHg 36%
    14:00 +30°C° 0 mm 0 mps 624 mmHg 39%
    15:00 +28°C° 0 mm 0 mps 623 mmHg 42%
    16:00 +26°C° 0 mm 0 mps 622 mmHg 46%
    17:00 +27°C° 0 mm 1 mps 622 mmHg 50%
    18:00 +25°C° 0 mm 1 mps 622 mmHg 54%
    19:00 +24°C° 0 mm 2 mps 623 mmHg 59%
    20:00 +21°C° 0.4 mm 2 mps 623 mmHg 68%
    21:00 +20°C° 0.4 mm 2 mps 622 mmHg 77%
    22:00 +19°C° 0.4 mm 3 mps 622 mmHg 86%
    23:00 +18°C° 0.1 mm 2 mps 622 mmHg 87%

    22 November, Thursday

    Time Temperature Precipitation Wind Pressure Humidity
    00:00 +18°C° 0.1 mm 2 mps 621 mmHg 89%
    01:00 +18°C° 0.1 mm 2 mps 621 mmHg 90%
    02:00 +17°C° 0.1 mm 2 mps 621 mmHg 91%
    03:00 +17°C° 0.1 mm 2 mps 621 mmHg 91%
    04:00 +17°C° 0.1 mm 2 mps 620 mmHg 91%
    05:00 +18°C° 0 mm 2 mps 621 mmHg 89%
    06:00 +19°C° 0 mm 2 mps 622 mmHg 86%
    07:00 +19°C° 0 mm 2 mps 622 mmHg 84%
    08:00 +21°C° 0.5 mm 2 mps 623 mmHg 75%
    09:00 +24°C° 0.5 mm 2 mps 623 mmHg 65%
    10:00 +26°C° 0.5 mm 2 mps 624 mmHg 56%
    11:00 +28°C° 0.4 mm 1 mps 624 mmHg 51%
    12:00 +29°C° 0.4 mm 1 mps 623 mmHg 46%
    13:00 +31°C° 0.4 mm 1 mps 623 mmHg 41%
    14:00 +30°C° 0 mm 1 mps 623 mmHg 43%
    15:00 +29°C° 0 mm 1 mps 622 mmHg 45%
    16:00 +28°C° 0 mm 2 mps 622 mmHg 47%
    17:00 +26°C° 0.1 mm 2 mps 621 mmHg 55%
    18:00 +24°C° 0.1 mm 2 mps 621 mmHg 63%
    19:00 +21°C° 0.1 mm 2 mps 621 mmHg 71%
    20:00 +20°C° 0 mm 3 mps 621 mmHg 75%
    21:00 +20°C° 0 mm 3 mps 621 mmHg 79%
    22:00 +19°C° 0 mm 3 mps 621 mmHg 82%
    23:00 +18°C° 0.1 mm 2 mps 621 mmHg 85%
    Show more